星链-33895 (STARLINK-33895)

导读

STARLINK-33895是美国于2025年5月13日发射的星链系列卫星,隶属于SpaceX公司打造的星链星座项目。星链项目旨在构建全球覆盖的卫星互联网星座,为全球偏远地区、海洋及通信基础设施薄弱区域提供低成本、高速率的宽带互联网接入服务,该卫星入轨后将扩充星链星座的服务覆盖能力与网络容量。

基本信息
目录编号:
63934
目录名称:
STARLINK-33895
国际标识:
2025-098J
轨道中心:
EARTH
卫星名称:
星链-33895
卫星全名:
星链-33895 (STARLINK-33895)
卫星状态:
在轨 (已飞行479 天)
发射日期:
2025-05-13 UTC
国别 :
美国 (US)
星等 :
--
轨道信息
数据来源 国际轨道数据
星历时间: 2026-09-04T06:00:02+0800
8小时前
查看轨道信息
半长轴: 6856.057km
偏心率: 0.0003538
轨道倾角: 70.001°
近地点辐角 268.442°
升交点赤经 184.595°
平近点角 10.595°
近地点: 475.494km
远地点: 480.346km
周期: 94.161分钟
每日圈数: 15.292947
详细信息
固有亮度:
5
最大亮度:
2.5
卫星平台:
Starlink V1.0
覆盖范围:
全球
运营商:
太空探索技术公司
运营商所在国:
美国
制造商(研发单位):
太空探索技术公司
制造商所在国:
美国
使用方式:
暂无
卫星简介
Starlink 计划是 SpaceX 推出的全球卫星互联网项目,通过发射低轨道卫星,为全球尤其是偏远地区提供高速、低延迟的互联网服务。自 2019 年起,Starlink 已部署数千颗卫星,旨在缩小全球数字鸿沟,推动互联网普及。该项目还为军事、航空等行业提供通信支持,带来广泛经济效益。
2D轨道图
3D轨道图
轨道高度分析图
轨道倾角分析图
轨道综合分析图
查看轨道综合分析图
交会数据列表
事件ID 空间交会对象 最接近时刻(TCA) 交会距离 交会风险概率(CRP) 交会风险指数(CRI) 操作
CDM_260904-043605-669006-393421
2026-09-04T
04:36:52+0000
0.306 km
远距离
4.640795E-4 高风险 0.88
CDM_260904-061105-669006-393421
2026-09-04T
06:11:05+0000
0.886 km
远距离
3.670728E-5 中风险 0.66
CDM_260904-012505-714706-393421
2026-09-04T
01:25:15+0000
1.411 km
极远距离
7.263365E-6 低风险 0.52
CDM_260904-110505-751206-393421
2026-09-04T
11:05:03+0000
1.423 km
极远距离
6.636102E-6 低风险 0.51
CDM_260904-062205-751206-393421
2026-09-04T
06:22:27+0000
1.534 km
极远距离
5.177259E-6 低风险 0.49
CDM_260904-051405-860306-393421
2026-09-04T
05:14:06+0000
1.515 km
极远距离
3.846562E-6 低风险 0.47
CDM_260904-022106-393406-718721
2026-09-04T
02:21:03+0000
2.183 km
极远距离
2.092284E-6 低风险 0.41
CDM_260904-105005-714706-393421
2026-09-04T
10:50:28+0000
2.405 km
极远距离
1.692355E-6 低风险 0.4
CDM_260904-101206-393406-718721
2026-09-04T
10:12:04+0000
2.641 km
极远距离
1.453644E-6 低风险 0.38
CDM_260904-075605-751206-393421
2026-09-04T
07:56:40+0000
2.559 km
极远距离
1.435094E-6 低风险 0.38